Location: Oundoundou
(13.6667°N, 13.5500°W)
Time: 07:14:43
(UTC+00:00)

Daily predictions for brighter satellites

Satellite Brightness Start Highest point End
(mag) Time Altitude Azimuth Time Altitude Azimuth Time Altitude Azimuth
Cosmos 1655 Rocket 4.3 19:38:57 10° SSE 19:44:51 46° E 19:50:43 10° NNE
H-2A R/B 1.8 19:44:32 10° W 19:46:31 45° NNW 19:49:13 10° NE
Cosmos 1656 3.8 19:42:37 10° NNW 19:48:10 82° WSW 19:53:38 10° SSE
Cosmos 1763 Rocket 3.5 19:43:33 10° NNW 19:48:39 87° WSW 19:53:43 10° SSE
Cosmos 1980 Rocket 2.9 19:43:41 10° N 19:48:52 36° ENE 19:54:03 10° SE
OTV 4 1.4 19:46:38 10° WSW 19:49:32 50° NW 19:52:26 10° NE
SL-16 R/B 4.2 19:51:58 10° ENE 19:53:01 10° ENE 19:54:04 10° ENE
Cosmos 1697 Rocket 2.7 19:48:17 10° NNW 19:53:55 79° ENE 19:59:31 10° SSE
Cosmos 2221 3.1 19:52:28 10° NNE 19:56:27 38° E 20:00:28 10° SSE
AVUM R/B 2.0 19:54:36 10° SSW 19:56:40 88° ESE 19:58:51 10° NNE
Cosmos 540 Rocket 4.4 19:54:02 10° NNE 19:58:25 28° ENE 20:02:47 10° SE
Tiangong 1 4.5 19:57:13 10° WNW 19:58:28 12° NW 19:59:44 10° NNW
Cosmos 1470 3.2 19:56:56 10° N 20:00:51 67° W 20:04:48 10° S
Cosmos 1733 3.1 19:57:27 10° N 20:01:15 85° E 20:05:02 10° S
GENESIS II 4.2 19:57:44 10° NNW 20:01:44 83° ENE 20:05:38 10° SSE
FREGAT/IRIS 3.2 20:00:06 10° S 20:03:10 62° W 20:06:13 10° NNW
Meteor 1-24 Rocket 4.3 19:58:45 10° SSW 20:04:26 62° W 20:09:54 10° N
SWIFT 2.6 20:01:16 10° WNW 20:05:26 60° NNE 20:09:14 12° E
Cosmos 1766 Rocket 4.0 20:05:46 10° SSW 20:10:11 68° W 20:14:34 10° N
Cosmos 968 Rocket 4.3 20:06:21 10° SSW 20:11:21 54° WNW 20:16:24 10° N
Cosmos 1833 4.2 20:07:43 10° S 20:13:27 76° ESE 20:19:09 10° NNE
Resurs 01 Rocket 1.9 20:10:50 10° S 20:15:13 69° WSW 20:19:38 10° NNW
Cosmos 2228 Rocket 4.4 20:12:15 10° NNE 20:15:50 23° E 20:17:47 18° ESE
CZ-4B DEB 2.8 20:15:41 10° SSE 20:18:59 71° E 20:22:18 10° N
Cosmos 1674 4.1 20:18:45 19° ESE 20:19:20 19° E 20:22:06 10° NE
Sakura Rocket 3.6 20:16:35 10° WSW 20:21:55 61° NNW 20:25:57 10° NE
FengYun 1-2 T 4.1 20:23:28 10° SSE 20:28:56 79° ENE 20:34:26 10° N
BREEZE-M DEB (TANK) 3.4 20:18:28 10° SSW 20:29:31 51° SE 20:32:54 10° ENE
NOSS 3-1 (C) 3.2 20:25:11 10° SSW 20:30:46 66° ESE 20:36:35 10° NNE
deb Chang Zheng 4 4.2 20:27:08 10° NE 20:31:04 34° E 20:33:04 23° SSE
Cosmos 2360 4.1 20:34:07 10° NNW 20:39:50 81° ENE 20:43:49 21° SSE
ERS-1 Rocket 4.2 20:39:22 22° E 20:40:00 23° ENE 20:43:51 10° NNE
Meteor 2-1 Rocket 4.5 20:37:46 10° NNW 20:43:15 68° W 20:48:42 10° S
Cosmos 332 Rocket 3.7 20:38:58 10° N 20:43:50 77° ENE 20:46:28 27° SSE
Meteor 2-20 4.4 20:38:00 10° S 20:44:04 66° E 20:50:09 10° NNE
Ariane H10 3.2 20:41:34 10° WSW 20:44:39 22° SSW 20:44:39 22° SSW
H-2A R/B 2.7 20:44:25 40° SE 20:45:34 60° ENE 20:49:19 10° N
Hubble Space Telescope 2.2 20:42:36 10° W 20:46:26 36° NNW 20:50:16 10° NE
Cosmos 1553 Rocket 4.1 20:41:54 10° N 20:48:01 53° E 20:51:05 28° SSE
Cosmos 1417 Rocket 4.4 20:42:33 10° N 20:48:50 78° E 20:53:47 17° S
Meteor 1-21 Rocket 4.5 20:43:21 10° SSW 20:48:54 69° W 20:54:23 10° N
CZ-2D R/B 3.3 20:50:19 32° S 20:52:01 79° W 20:55:53 10° NNW
Sylda 5 4.4 20:52:28 10° SSW 20:52:39 11° S 20:52:39 11° S
ARIANE 5 R/B 4.2 20:52:35 10° WSW 21:00:50 24° SSW 21:01:22 24° S
Cosmos 2219 3.3 20:55:51 10° SSW 21:01:34 76° WNW 21:07:19 10° NNE
USA 186 3.9 21:04:19 16° NNW 21:04:19 16° NNW 21:04:54 10° NNW
Cosmos 2298 Rocket 4.1 21:03:47 50° ESE 21:04:09 51° ESE 21:09:17 10° NNE
ALOS 2.6 21:02:02 28° S 21:04:25 64° W 21:09:02 10° NNW
Cosmos 1437 Rocket 4.1 21:01:50 10° NNE 21:03:56 26° NE 21:03:56 26° NE
ASTRO E2 3.0 21:05:21 10° WNW 21:09:05 55° SW 21:09:05 55° SW
H-2A R/B 3.4 21:10:48 27° NE 21:10:48 27° NE 21:13:35 10° NNE
YAOGAN 11 3.9 21:09:38 73° ENE 21:09:38 73° ENE 21:13:55 10° N
ATLAS CENTAUR R/B 1.9 21:09:20 10° NW 21:13:16 48° WSW 21:13:31 47° SW
Nadezhda 2 Rocket 4.4 21:12:37 49° SE 21:13:58 61° E 21:19:59 10° NNE
FENGYUN 3A 4.2 21:13:03 26° S 21:16:01 56° WSW 21:21:19 10° NNW
Cosmos 371 Rocket 3.5 21:13:36 10° NNW 21:18:20 66° WSW 21:19:10 55° SSW
GPS 2-12 Rocket1 3.9 21:15:47 10° WNW 21:19:59 40° N 21:20:24 39° NNE
Cosmos 1328 Rocket 4.2 21:20:06 10° NNW 21:24:24 52° W 21:24:56 49° WSW
Cosmos 2322 Rocket 2.3 21:19:26 10° NNW 21:25:01 69° WSW 21:26:10 54° SSW
Delta 142 4.0 21:28:39 10° WNW 21:32:55 68° N 21:32:55 68° N
Cosmos 2360 Rocket 3.2 21:28:16 10° N 21:32:03 33° NE 21:32:03 33° NE
NOSS 3-1 (A) 4.5 21:29:53 10° SW 21:35:11 40° WNW 21:40:44 10° N
SL-16 R/B 2.6 21:31:38 10° NNW 21:37:09 56° WSW 21:37:56 52° SW
Cosmos 1898 Rocket 3.9 21:43:44 58° NNW 21:43:44 58° NNW 21:48:05 10° N
Cosmos 2227 Rocket 4.2 21:50:33 17° NNE 21:50:33 17° NNE 21:51:44 10° NNE
ATLAS 2AS CENTAUR R/B 3.0 21:58:08 61° NE 21:58:08 61° NE 22:04:17 10° NNE
